Terminal Aerodrome Forecast
Issued by NWS Wilmington, OH

Current Version | Previous Version | Graphics & Text | Print | Product List | Glossary On
Versions: 1 2 3 4 5 6 7 8 9 10 11 12 13 14 15 16 17 18 19 20 21 22 23 24
049
FTUS41 KILN 072059 AAA
TAFCVG
TAF AMD
KCVG 072059Z 0721/0824 28007KT P6SM OVC100
     FM081400 28012KT P6SM SCT200
     FM082000 18012G20KT P6SM FEW035=

USA.gov is the U.S. government's official web portal to all federal, state and local government web resources and services.